Regional Weather Roundup
Issued by NWS

Home | Current Version | Previous Version | Text Only | Print | Product List | Glossary Off
Versions: 1 2 3 4 5 6 7 8 9 10 11 12 13 14 15 16 17 18 19 20 21 22 23 24 25 26 27 28 29 30 31 32 33 34 35 36 37 38 39 40 41 42 43 44 45 46 47 48 49 50

000
ASUS43 KFSD 250310
RWRSD

WEATHER ROUNDUP FOR SOUTH DAKOTA
NATIONAL WEATHER SERVICE SIOUX FALLS SD
1000 PM CDT THU APR 24 2014

NOTE: "FAIR" INDICATES FEW OR NO CLOUDS BELOW 12,000 FEET WITH NO
SIGNIFICANT WEATHER AND/OR OBSTRUCTIONS TO VISIBILITY.


SDZ001>005-009-010-012>017-250400-
NORTHWEST AND NORTH CENTRAL SOUTH DAKOTA

CITY           SKY/WX    TMP DP  RH WIND       PRES   REMARKS
BUFFALO          N/A     50  27  40 NW8       29.71R
FAITH            N/A     51  28  41 N13       29.74F
MOBRIDGE       MOCLDY    42  22  44 NW6       29.72R
$$

SDZ012>016-024>037-041>051-057-063-072>074-250400-
SOUTHWEST AND SOUTH CENTRAL SOUTH DAKOTA

CITY           SKY/WX    TMP DP  RH WIND       PRES   REMARKS
RAPID CTY ARPT CLOUDY    45  29  53 NE7       29.79R
PIERRE         PTCLDY    48  25  40 NW3       29.76R
CUSTER         CLOUDY    46  23  40 NE7       29.82S
ELLSWORTH AFB  CLOUDY    51  29  41 SE5       29.79R
PHILIP         CLOUDY    51  30  44 CALM      29.78R
PINE RIDGE     CLOUDY    53  28  38 NE13      29.80R
SPEARFISH      MOCLDY    45  32  61 S5        29.82R
WINNER         FAIR      56  24  29 W3        29.79R
$$

SDZ004>011-016>023-039-040-250400-
NORTHEAST SOUTH DAKOTA

CITY           SKY/WX    TMP DP  RH WIND       PRES   REMARKS
ABERDEEN       CLEAR     40  22  48 W3        29.73R
WATERTOWN      CLEAR     45  41  86 E3        29.73R
SISSETON         N/A     42  40  92 SW7       29.71S
$$

SDZ017-020-022-023-036>040-048>070-250400-
SOUTHEAST SOUTH DAKOTA

CITY           SKY/WX    TMP DP  RH WIND       PRES   REMARKS
SIOUX FALLS    CLEAR     47  34  60 W5        29.75R
HURON          CLEAR     46  22  38 W9        29.74R
CHAMBERLAIN      N/A     54  22  28 NW5       29.78R
MITCHELL       CLEAR     53  21  28 W6        29.76R
YANKTON        CLEAR     54  25  32 W9        29.79R
$$

ABBREVIATIONS USED IN REMARKS
   TC - TEMPERATURE IN CELSIUS
  WCI - WIND CHILL INDEX
   HX - HEAT INDEX
  VSB - VISIBILITY




USA.gov is the U.S. government's official web portal to all federal, state and local government web resources and services.